N805AB KBDL-

Flight info

Callsign N805AB
Flight time N/A
Altitude VFR
Route
Aircraft C700/M-VGDW/C

Departure

Time 2026-04-30 00:46
Airport Bradley International Airport (KBDL)

Arrival

Time N/A
Airport -
Time Latitude Longitude Altitude Speed Heading
2026-04-30 00:40 41.93732 -72.69477 174 ft 0 kts 124°
2026-04-30 00:42 41.93734 -72.69471 174 ft 3 kts 65°
2026-04-30 00:43 41.93753 -72.69414 175 ft 2 kts 77°
2026-04-30 00:43 41.93751 -72.69368 175 ft 12 kts 108°
2026-04-30 00:43 41.93746 -72.69244 176 ft 18 kts 46°
2026-04-30 00:43 41.93843 -72.69117 176 ft 18 kts 43°
2026-04-30 00:44 41.93933 -72.69146 173 ft 18 kts 313°
2026-04-30 00:44 41.94028 -72.69276 172 ft 21 kts 314°
2026-04-30 00:44 41.94109 -72.69384 171 ft 13 kts 317°
2026-04-30 00:44 41.94165 -72.69398 170 ft 0 kts 27°
2026-04-30 00:45 41.94170 -72.69393 169 ft 5 kts 32°
2026-04-30 00:45 41.94212 -72.69298 168 ft 18 kts 103°
2026-04-30 00:46 41.94050 -72.69061 169 ft 69 kts 135°
2026-04-30 00:46 41.93496 -72.68304 180 ft 155 kts 137°
2026-04-30 00:46 41.92585 -72.67089 541 ft 213 kts 137°
2026-04-30 00:46 41.91417 -72.65566 1244 ft 243 kts 136°
2026-04-30 00:47 41.90253 -72.64048 1852 ft 238 kts 137°
2026-04-30 00:47 41.89016 -72.62430 2566 ft 254 kts 136°
2026-04-30 00:47 41.87708 -72.60710 2685 ft 274 kts 136°
2026-04-30 00:47 41.86337 -72.58868 2402 ft 282 kts 135°
2026-04-30 00:48 41.84982 -72.56957 2351 ft 278 kts 130°
2026-04-30 00:48 41.84037 -72.54764 2412 ft 274 kts 109°
2026-04-30 00:48 41.83866 -72.52201 2213 ft 281 kts 86°
2026-04-30 00:48 41.84333 -72.49727 2362 ft 275 kts 71°
2026-04-30 00:49 41.85288 -72.47508 2377 ft 276 kts 54°
2026-04-30 00:49 41.86674 -72.45766 2474 ft 274 kts 35°
2026-04-30 00:49 41.88486 -72.44962 2539 ft 275 kts
2026-04-30 00:49 41.90361 -72.44778 2801 ft 266 kts
2026-04-30 00:50 41.92194 -72.44689 2974 ft 263 kts
2026-04-30 00:50 41.94156 -72.44958 3550 ft 300 kts 353°
2026-04-30 00:50 41.96299 -72.45376 4864 ft 321 kts 351°
2026-04-30 00:50 41.98496 -72.45824 5500 ft 323 kts 351°
2026-04-30 00:51 42.00798 -72.46310 5368 ft 342 kts 350°
2026-04-30 00:51 42.03076 -72.46900 5732 ft 322 kts 345°
2026-04-30 00:51 42.05111 -72.47916 6104 ft 304 kts 333°
2026-04-30 00:51 42.06927 -72.49351 6088 ft 306 kts 324°
2026-04-30 00:52 42.08596 -72.51135 6148 ft 305 kts 313°
2026-04-30 00:52 42.09749 -72.53404 6612 ft 293 kts 294°
2026-04-30 00:52 42.10500 -72.55980 6845 ft 302 kts 286°
2026-04-30 00:52 42.11115 -72.58756 7212 ft 322 kts 284°
2026-04-30 00:53 42.11748 -72.61841 8227 ft 362 kts 283°
2026-04-30 00:53 42.12399 -72.65101 9314 ft 352 kts 283°
2026-04-30 00:53 42.13015 -72.68283 10237 ft 357 kts 282°
2026-04-30 00:53 42.13636 -72.71542 11768 ft 358 kts 282°
2026-04-30 00:54 42.14240 -72.74759 12602 ft 355 kts 281°
2026-04-30 00:54 42.14819 -72.77985 13229 ft 354 kts 280°
2026-04-30 00:54 42.15373 -72.81161 14063 ft 346 kts 280°
2026-04-30 00:54 42.15915 -72.84339 14526 ft 348 kts 280°
2026-04-30 00:55 42.16454 -72.87516 15068 ft 348 kts 279°
2026-04-30 00:55 42.16987 -72.90654 15559 ft 349 kts 279°
2026-04-30 00:55 42.18069 -72.97040 16577 ft 349 kts 280°
2026-04-30 00:56 42.18610 -73.00228 17100 ft 349 kts 280°
2026-04-30 00:56 42.19150 -73.03412 17595 ft 349 kts 280°
2026-04-30 00:56 42.19695 -73.06644 17768 ft 358 kts 280°
2026-04-30 00:56 42.20253 -73.09969 17793 ft 371 kts 280°
2026-04-30 00:57 42.20833 -73.13461 17805 ft 392 kts 280°
2026-04-30 00:57 42.21436 -73.17135 17823 ft 409 kts 280°
2026-04-30 00:57 42.22032 -73.20750 17837 ft 377 kts 280°
2026-04-30 00:57 42.22585 -73.24042 17830 ft 346 kts 280°
2026-04-30 00:58 42.23127 -73.27229 17820 ft 361 kts 280°
2026-04-30 00:58 42.23695 -73.30606 17827 ft 371 kts 280°
2026-04-30 00:58 42.24289 -73.33983 17827 ft 372 kts 283°
2026-04-30 00:58 42.25234 -73.37265 17821 ft 378 kts 291°
2026-04-30 00:59 42.26386 -73.40449 17827 ft 377 kts 294°
2026-04-30 00:59 42.27597 -73.43587 17828 ft 377 kts 294°
2026-04-30 00:59 42.28810 -73.46667 17830 ft 376 kts 295°
2026-04-30 00:59 42.30049 -73.49790 17828 ft 378 kts 295°
2026-04-30 01:00 42.31298 -73.52933 17832 ft 380 kts 295°
2026-04-30 01:00 42.32549 -73.56071 17833 ft 379 kts 295°
2026-04-30 01:00 42.33799 -73.59202 17830 ft 377 kts 295°
2026-04-30 01:00 42.35050 -73.62326 17830 ft 379 kts 295°
2026-04-30 01:01 42.36309 -73.65466 17824 ft 381 kts 295°
2026-04-30 01:01 42.37572 -73.68611 17829 ft 380 kts 295°
2026-04-30 01:01 42.38837 -73.71749 17829 ft 379 kts 295°
2026-04-30 01:01 42.40101 -73.74873 17820 ft 378 kts 295°
2026-04-30 01:02 42.41366 -73.77994 17820 ft 379 kts 295°
2026-04-30 01:02 42.42641 -73.81130 17817 ft 381 kts 295°
2026-04-30 01:02 42.43919 -73.84272 17822 ft 380 kts 295°
2026-04-30 01:02 42.45197 -73.87395 17821 ft 378 kts 295°
2026-04-30 01:03 42.46457 -73.90460 17821 ft 378 kts 295°
2026-04-30 01:03 42.47742 -73.93577 17830 ft 380 kts 295°
2026-04-30 01:03 42.49032 -73.96704 17831 ft 380 kts 295°
2026-04-30 01:03 42.50324 -73.99833 17831 ft 380 kts 295°
2026-04-30 01:04 42.51616 -74.02956 17837 ft 379 kts 295°
2026-04-30 01:04 42.52908 -74.06071 17835 ft 379 kts 295°
2026-04-30 01:04 42.54202 -74.09185 17836 ft 381 kts 295°
2026-04-30 01:04 42.55547 -74.12438 17846 ft 400 kts 295°
2026-04-30 01:05 42.56892 -74.15680 17848 ft 389 kts 295°
2026-04-30 01:05 42.58209 -74.18833 17847 ft 380 kts 295°
2026-04-30 01:05 42.59501 -74.21908 17840 ft 372 kts 295°
2026-04-30 01:05 42.60790 -74.24954 17837 ft 377 kts 295°
2026-04-30 01:06 42.62110 -74.28087 17837 ft 386 kts 295°
2026-04-30 01:06 42.63437 -74.31240 17823 ft 393 kts 295°
2026-04-30 01:06 42.64800 -74.34492 17713 ft 400 kts 295°
2026-04-30 01:06 42.66181 -74.37802 17587 ft 400 kts 295°
2026-04-30 01:07 42.67536 -74.41041 17456 ft 389 kts 295°
2026-04-30 01:07 42.68862 -74.44194 17325 ft 380 kts 295°
2026-04-30 01:07 42.70163 -74.47275 17189 ft 373 kts 295°
2026-04-30 01:07 42.71447 -74.50304 17055 ft 367 kts 295°
2026-04-30 01:08 42.72715 -74.53286 16919 ft 362 kts 295°
2026-04-30 01:08 42.73994 -74.56296 16793 ft 376 kts 295°
2026-04-30 01:08 42.75329 -74.59462 16667 ft 395 kts 295°
2026-04-30 01:08 42.76702 -74.62731 16554 ft 399 kts 295°
2026-04-30 01:09 42.78080 -74.66005 16482 ft 399 kts 295°
2026-04-30 01:09 42.79445 -74.69240 16411 ft 399 kts 295°
2026-04-30 01:09 42.80830 -74.72515 16342 ft 400 kts 295°
2026-04-30 01:09 42.82221 -74.75806 16270 ft 400 kts 295°
2026-04-30 01:10 42.83610 -74.79091 16197 ft 401 kts 295°
2026-04-30 01:10 42.85006 -74.82385 16122 ft 401 kts 295°
2026-04-30 01:10 42.86401 -74.85680 16048 ft 402 kts 295°
2026-04-30 01:10 42.87804 -74.88989 15972 ft 403 kts 295°
2026-04-30 01:11 42.88726 -74.91181 15926 ft 403 kts 294°
2026-04-30 01:11 42.90012 -74.94562 15704 ft 398 kts 291°
2026-04-30 01:11 42.91202 -74.97904 15409 ft 386 kts 291°
2026-04-30 01:11 42.92350 -75.01165 15112 ft 376 kts 290°
2026-04-30 01:12 42.93471 -75.04353 14817 ft 369 kts 290°
2026-04-30 01:12 42.94575 -75.07479 14522 ft 363 kts 290°
2026-04-30 01:12 42.96020 -75.11540 14139 ft 356 kts 290°
2026-04-30 01:12 42.97100 -75.14578 13848 ft 357 kts 290°
2026-04-30 01:13 42.98187 -75.17634 13552 ft 359 kts 290°
2026-04-30 01:13 42.98908 -75.19668 13343 ft 360 kts 290°
2026-04-30 01:13 42.99999 -75.22749 13031 ft 361 kts 290°
2026-04-30 01:13 43.01087 -75.25845 12717 ft 363 kts 290°
2026-04-30 01:14 43.02174 -75.28942 12405 ft 358 kts 290°
2026-04-30 01:14 43.03240 -75.31980 12101 ft 351 kts 290°
2026-04-30 01:14 43.04289 -75.34968 11798 ft 346 kts 290°
2026-04-30 01:14 43.05321 -75.37903 11495 ft 337 kts 291°
2026-04-30 01:15 43.06316 -75.40712 11187 ft 320 kts 290°
2026-04-30 01:15 43.07267 -75.43379 10884 ft 304 kts 291°
2026-04-30 01:15 43.08178 -75.45912 10579 ft 291 kts 290°